Location: B�rgermoos
(47.6500°N, 9.0667°E)
Time: 18:39:11
(UTC+00:00)

A-11 Canister half - Pass Details

Date: 05 August 2021
Orbit: 1526 x 1683 km, 47.3° (Epoch: 20 September)

Event Time Altitude Azimuth Distance (km) Brightness Sun altitude
Rises 12:49:45 0° 272° (W) 4,935 11.9 55.1°
Reaches altitude 10° 12:52:56 10° 273° (W) 3,940 11.6 54.8°
Maximum altitude 13:03:07 88° 186° (S) 1,659 10.3 53.7°
Drops below altitude 10° 13:13:00 10° 98° (E) 3,839 11.0 52.6°
Sets 13:16:03 0° 99° (E) 4,803 11.4 52.2°
